Location: Ballingbuur
(53.0000°N, 5.7667°E)
Time: 17:19:33
(UTC+00:00)

Daily predictions for brighter satellites

Satellite Brightness Start Highest point End
(mag) Time Altitude Azimuth Time Altitude Azimuth Time Altitude Azimuth
Meteor 1-22 Rocket 4.3 20:47:49 10° NNW 20:53:26 89° WSW 20:59:15 10° S
Cosmos 2315 Rocket 4.2 20:48:40 10° N 20:55:03 69° ENE 21:01:24 10° SSE
Cosmos 1758 3.4 20:52:56 10° N 20:56:49 61° ENE 21:00:41 10° SSE
Resurs 01 Rocket 4.5 21:03:15 10° WSW 21:04:44 11° W 21:06:13 10° WNW
Cosmos 1954 Rocket 4.2 20:59:30 10° SSW 21:04:48 79° WNW 21:10:07 10° NNE
Cosmos 968 Rocket 4.4 21:00:31 10° SSE 21:04:56 30° ESE 21:09:24 10° NE
Landsat 4 3.8 21:01:36 10° S 21:05:01 63° WSW 21:08:27 10° NNW
Cosmos 1980 Rocket 4.5 21:01:24 10° WNW 21:05:09 18° W 21:08:51 10° SW
COSMOS 2406 3.8 21:00:31 10° SW 21:06:15 66° NW 21:11:59 10° NNE
Cosmos 2322 Rocket 2.3 21:00:58 10° NNW 21:06:41 84° WSW 21:12:22 10° SSE
Cosmos 1814 Rocket 4.5 21:01:39 10° NNW 21:06:52 55° ENE 21:12:06 10° SE
Cosmos 1356 Rocket 3.9 21:06:53 10° SSE 21:10:53 45° E 21:14:56 10° NNE
SeaSat 1 3.7 21:09:12 10° S 21:13:38 33° WSW 21:18:06 10° NW
Cosmos 676 Rocket 4.2 21:09:36 10° SSW 21:14:56 79° WNW 21:20:17 10° NNE
Cosmos 1862 Rocket 4.1 21:11:51 10° SSE 21:16:01 44° E 21:20:15 10° NNE
Cosmos 1707 4.3 21:14:23 10° SW 21:17:42 33° WNW 21:21:02 10° N
MOS 1 Rocket 4.2 21:15:34 10° S 21:20:52 57° W 21:26:06 10° NNW
BREEZE-M DEB (TANK) 4.5 21:00:11 10° WSW 21:22:24 64° S 21:27:30 10° E
USA 234 3.2 21:15:53 10° ENE 21:22:26 70° SSE 21:28:57 10° SW
Cosmos 1455 3.2 21:23:30 10° N 21:26:40 30° ENE 21:29:35 11° SE
COSMOS 2428 3.7 21:22:07 10° NNW 21:27:29 40° NE 21:32:49 10° ESE
Cosmos 1400 Rocket 3.0 21:23:48 10° SSW 21:27:41 72° WNW 21:31:33 10° N
SL-4 R/B 1.9 21:24:19 10° W 21:28:11 73° S 21:32:19 10° E
Meteor 2-10 Rocket 4.1 21:24:46 10° NNW 21:30:21 61° W 21:35:41 10° S
Landsat 5 3.4 21:29:26 10° NNE 21:33:24 72° ESE 21:37:29 10° S
Cosmos 2219 Rocket 2.4 21:28:22 10° NNW 21:34:03 72° NE 21:39:27 11° SE
Cosmos 1707 Rocket 3.6 21:32:19 10° S 21:36:46 81° E 21:41:14 10° NNE
ATLAS CENTAUR R/B 1.5 21:36:17 10° SSW 21:39:33 38° SE 21:42:55 10° NE
Kosmos-1783 4.1 21:38:04 10° NW 21:41:17 83° NE 21:47:52 10° SE
Cosmos 1315 Rocket 3.6 21:39:54 13° SSE 21:43:02 37° E 21:46:45 10° NNE
ARIANE 5 R/B 3.0 21:39:26 13° SE 21:43:12 54° ENE 21:47:27 10° N
SJ 16-02 1.8 21:39:28 11° S 21:43:21 41° ESE 21:47:26 10° NE
Meteor 1-4 Rocket 2.6 21:41:42 15° SSE 21:43:55 41° E 21:46:47 10° NNE
SL-27 R/B 1.9 21:41:51 11° S 21:44:26 56° ESE 21:47:11 10° NNE
Cosmos 1953 2.5 21:40:39 10° N 21:44:26 55° ENE 21:47:31 15° SSE
Okean 3 3.4 21:41:42 10° S 21:45:44 68° E 21:49:54 10° NNE
Aureole 3 3.5 21:49:38 11° S 21:53:25 82° E 21:58:21 10° NNE
Cosmos 1300 3.9 21:50:16 10° NNW 21:53:30 33° W 21:56:42 10° SSW
Cosmos 1733 Rocket 3.9 21:50:57 10° NNW 21:55:11 47° W 21:59:25 10° SSW
Spot 1 4.4 21:50:49 10° NNE 21:55:14 72° WNW 21:59:55 10° SSW
Nadezhda 1 Rocket 4.4 21:49:58 10° N 21:56:12 54° ENE 22:01:33 14° SSE
Cosmos 2360 Rocket 2.8 21:52:13 10° NW 21:57:40 49° WSW 22:02:32 13° S
Cosmos 1655 Rocket 4.5 21:53:37 10° SSW 21:59:58 64° WNW 22:06:22 10° N
GP-B 3.4 21:56:43 10° N 22:01:04 53° E 22:04:27 16° SSE
Cosmos 839 Rocket 4.3 21:54:20 10° NW 22:01:27 67° SW 22:06:45 14° SSE
H-2A R/B 3.1 21:59:14 14° SE 22:02:43 49° ENE 22:06:51 10° N
ATLAS 2AS CENTAUR R/B 3.1 21:59:35 10° NW 22:06:09 50° WSW 22:11:32 15° SSE
Cosmos 2333 Rocket 2.9 22:00:51 10° NW 22:06:19 46° WSW 22:11:07 13° S
SL-16 R/B 3.9 22:01:57 10° NW 22:06:21 24° WSW 22:10:44 10° SSW
Cosmos 1908 Rocket 3.5 22:03:19 10° N 22:07:43 85° ENE 22:11:05 16° SSE
SL-14 R/B 4.5 22:06:10 10° SW 22:09:43 38° WNW 22:13:18 10° N
Cosmos 1782 Rocket 4.0 22:06:00 10° N 22:10:15 51° ENE 22:13:29 16° SSE
Cosmos 2228 Rocket 4.1 22:07:06 10° SSW 22:11:29 46° WNW 22:15:54 10° N
RESURS DK-1 4.4 22:08:56 10° WNW 22:11:46 18° WSW 22:14:35 10° SSW
BREEZE-M DEB (TANK) 3.4 22:10:31 10° WSW 22:13:18 54° SSE 22:20:37 10° E
Okean 1-7 3.0 22:13:21 13° S 22:17:08 88° E 22:21:30 10° NNE
SL-16 R/B 4.4 22:17:54 10° NNW 22:22:20 22° NNE 22:26:45 10° E
BREEZE-M DEB (TANK) 1.7 22:18:43 10° W 22:23:31 89° S 22:25:41 10° E
Cosmos 1833 4.2 22:18:05 10° SSW 22:23:44 86° ESE 22:29:23 10° NNE
Cosmos 1408 3.6 22:22:39 18° SE 22:23:55 23° E 22:26:23 10° NE
BlueWalker 3 3.7 22:24:27 15° SE 22:24:27 15° SE 22:26:13 10° E
Terra 4.3 22:22:02 10° WSW 22:24:17 13° W 22:26:34 10° NW
MINOTAUR 4 R/B 3.6 22:21:37 10° NNE 22:24:31 61° ESE 22:26:10 22° S
Cosmos 1242 Rocket 2.1 22:23:20 24° SSE 22:24:42 52° E 22:27:26 10° NNE
Cosmos 1570 Rocket 4.1 22:25:01 10° NNW 22:30:23 81° WSW 22:34:28 18° SSE
Cosmos 1300 Rocket 3.6 22:26:37 10° N 22:30:55 67° ENE 22:33:56 19° SSE
Cosmos 2237 Rocket 3.0 22:25:53 10° NNW 22:31:22 47° NE 22:36:49 10° ESE
Cosmos 2322 3.7 22:26:03 10° NNW 22:31:45 78° WSW 22:36:10 17° SSE
Cosmos 1238 4.3 22:28:57 10° N 22:32:02 76° E 22:34:07 22° SSE
H-2A R/B 4.1 22:30:32 10° NE 22:33:04 15° E 22:35:22 11° ESE
USA 281 3.6 22:28:55 16° S 22:34:14 56° WSW 22:40:44 10° NNW
SOZ 4.4 22:31:42 10° W 22:34:50 73° S 22:37:20 10° E
ALOS 2 2.9 22:32:43 18° SSE 22:35:56 63° ENE 22:40:18 10° N
CZ-2C R/B 3.8 22:35:15 10° NNE 22:39:40 73° WNW 22:43:37 13° SSW
Orbus 7S? 4.2 22:37:29 10° WNW 22:40:37 38° N 22:43:10 10° ENE
Cosmos 2227 Rocket 4.3 22:39:31 10° ESE 22:41:34 12° E 22:43:39 10° ENE
Cosmos 1980 4.2 22:38:43 10° NNW 22:44:19 58° NE 22:49:45 11° SE
CZ-4C R/B 3.3 22:42:24 17° SE 22:44:20 21° ESE 22:48:21 10° ENE
BREEZE-M DEB (TANK) 4.4 22:45:04 19° SE 22:45:07 19° SE 22:48:17 10° E
Cosmos 968 Rocket 4.2 22:41:24 10° SW 22:46:26 52° WNW 22:51:33 10° NNE
Cosmos 1703 4.2 22:44:41 19° SE 22:46:37 31° E 22:49:55 10° NNE
Cosmos 2322 Rocket 4.2 22:46:16 10° WNW 22:49:54 18° W 22:53:31 10° SW
Cosmos 1709 Rocket 4.3 22:45:07 17° SSE 22:49:58 60° E 22:56:14 10° NNE
Cosmos 1703 Rocket 3.9 22:48:43 15° SSW 22:52:25 65° WNW 22:56:52 10° N
Spot 4 3.9 22:49:10 19° S 22:52:34 71° WSW 22:57:24 10° NNW
NOSS 0 Rocket 4.0 22:47:19 10° NW 22:53:36 88° SW 22:58:44 16° SSE
Cosmos 158 Rocket 4.1 22:49:09 10° NNW 22:54:30 73° WSW 22:58:13 19° SSE
PSLV R/B 4.3 22:55:16 10° N 22:59:13 59° WNW 23:02:28 14° SSW
EXPRESS MD2 2.9 22:58:04 10° WSW 22:59:34 29° SW 22:59:34 29° SW
Cosmos 2242 Rocket 3.8 22:57:30 21° S 23:00:31 65° E 23:05:04 10° NNE
Cosmos 1455 3.8 22:58:08 10° NW 23:00:59 23° W 23:03:18 13° SW
Cosmos 2297 Rocket 3.3 22:57:55 17° SSE 23:01:09 30° ESE 23:05:58 10° NE
Meteor 2-5 Rocket 4.3 22:57:47 18° SSE 23:01:57 48° E 23:07:33 10° NNE
Cosmos 2208 Rocket 4.2 22:57:15 10° NNW 23:02:24 60° WSW 23:05:55 20° S
USA 234 3.6 22:59:00 10° ENE 23:05:30 70° NNW 23:12:00 10° W
Cosmos 773 Rocket 4.0 23:01:26 10° NNW 23:06:37 84° ENE 23:10:31 18° SSE
SL-4 R/B 2.1 23:02:53 10° W 23:06:50 56° SSW 23:11:01 10° ESE
Cosmos 1892 4.4 23:06:43 14° SE 23:08:29 19° E 23:11:04 10° NE
COSMOS 2428 3.1 23:06:24 10° NW 23:11:54 51° WSW 23:15:45 19° S
Cosmos 2098 Rocket 4.2 23:06:49 10° N 23:13:26 78° E 23:18:28 18° SSE
CENTAUR R/B 4.1 23:12:45 11° SE 23:15:44 16° ESE 23:19:34 10° ENE
COSMOS 2455 3.2 23:12:16 18° S 23:16:27 49° ESE 23:22:16 10° NE
ATLAS CENTAUR R/B 2.7 23:13:56 10° WSW 23:17:13 35° NW 23:20:38 10° NE
GENESIS II 3.9 23:14:53 19° SSW 23:17:21 68° SE 23:20:59 10° NE
Cosmos 2219 Rocket 3.6 23:12:59 10° NW 23:17:30 25° WSW 23:21:08 14° SSW
ARIANE 5 R/B 4.4 23:16:54 11° SW 23:19:56 21° W 23:23:16 10° NW
SJ 16-02 3.0 23:18:00 10° WSW 23:21:49 30° NW 23:25:41 10° N
PSLV R/B 3.5 23:26:15 10° NNE 23:30:31 70° ESE 23:33:07 22° S
Cosmos 304 Rocket 3.9 23:31:07 21° S 23:34:09 60° ESE 23:38:51 10° NNE
Cosmos 1174 4.2 23:30:57 10° NW 23:36:18 88° NE 23:39:54 14° SE
Cosmos 2263 Rocket 4.3 23:35:05 10° ESE 23:37:25 13° E 23:39:46 10° ENE
H-2A R/B 4.2 23:35:13 14° SW 23:37:53 23° W 23:41:20 10° NW
Okean 1 Rocket 3.5 23:35:38 10° N 23:39:54 54° ENE 23:43:06 17° SSE
Cosmos 2181 Rocket 4.0 23:38:45 10° NNW 23:45:00 80° W 23:49:34 19° S
Cosmos 1486 Rocket 4.0 23:41:55 17° SSW 23:45:58 83° WNW 23:51:14 10° NNE
Cosmos 1825 2.5 23:47:12 23° SSE 23:48:57 45° E 23:52:15 10° NNE
Helios 1A Rocket 4.4 23:46:56 10° SE 23:50:15 29° ENE 23:53:35 10° N
Cosmos 1408 4.1 23:54:41 13° WSW 23:56:37 22° WNW 23:59:02 10° NNW
